EUTELSAT 113 WEST A (29162 NORAD) Tracking and Keplerian Element Data

This shows tracking and keplerian element data for the satellite.

Feedback or suggestion? Click here.




ElementValue
Catalog29162
NameEUTELSAT 113 WEST A
Epoch Orbit6458
Epoch Day12.70353105
Epoch Year2024
RAAN111.4775
Inclination0.0797
Eccentricity0.0003096
Argument of Perigee185.1118
Mean Anonmoly315.3594
Mean Motion1.00272274
Decay Rate-2.7E-07
L11 29162U 06020A 24012.70353105 -.00000027 00000+0 00000+0 0 9999
L22 29162 0.0797 111.4775 0003096 185.1118 315.3594 1.00272274 64582



Live tracking and technical data element details for EUTELSAT 113 WEST A (NORAD 29162). EUTELSAT 113 WEST A can be tracked NOW for your location showing map with azimuth and elevation plus other details from your city location.







IsCatalogInMostPopularTable: catalog: 29162, numindb: 358
Update: records affected: 1



GetName: 29162 EUTELSAT 113 WEST A

Hit Count: updated at: Thu, 15 May 2025 20:09:47 GMT